CW5752 Weather Reports


time (UTC)temp
C
wind
direction
speed
KPH
gust
KPH
rain 1hr
cm
rain 24hr
cm
rain mn
cm
humidity
%
barometer
mb
20260505050521 21 183 9.7 14.5 0.00 0.00 0.00 53 1006.0
20260505041516 21 184 8.0 27.4 0.00 0.00 0.00 52 1006.0
20260505040522 21 185 6.4 19.3 0.00 0.00 0.00 52 1006.0
20260505035522 21 178 8.0 16.1 0.00 0.00 0.00 52 1005.9
20260505034521 21 183 8.0 22.5 0.00 0.00 0.00 52 1006.0
20260505033521 21 177 4.8 12.9 0.00 0.00 0.00 52 1005.9
20260505032522 21 181 6.4 27.4 0.00 0.00 0.00 51 1005.9
20260505031522 21 158 4.8 16.1 0.00 0.00 0.00 52 1005.8
20260505030557 21 173 4.8 25.7 0.00 0.00 0.00 51 1005.6
20260505025521 21 180 4.8 17.7 0.00 0.00 0.00 51 1005.6
20260505024521 21 179 4.8 16.1 0.00 0.00 0.00 51 1005.4
20260505023521 22 165 4.8 17.7 0.00 0.00 0.00 50 1005.5
20260505022522 22 180 3.2 17.7 0.00 0.00 0.00 50 1005.6
20260505021542 22 182 4.8 17.7 0.00 0.00 0.00 49 1005.4
20260505020517 22 176 4.8 14.5 0.00 0.00 0.00 49 1005.3
20260505015516 22 173 4.8 19.3 0.00 0.00 0.00 49 1005.0
20260505014542 22 170 6.4 19.3 0.00 0.00 0.00 48 1005.0
20260505013541 22 176 4.8 14.5 0.00 0.00 0.00 48 1004.9
20260505012522 22 180 8.0 25.7 0.00 0.00 0.00 47 1004.9
20260505011521 22 182 3.2 14.5 0.00 0.00 0.00 48 1004.9
20260505010522 23 176 4.8 16.1 0.00 0.00 0.00 46 1004.8
20260505005536 23 175 8.0 19.3 0.00 0.00 0.00 45 1004.8
20260505004522 23 182 6.4 32.2 0.00 0.00 0.00 45 1004.5
20260505003522 23 182 6.4 20.9 0.00 0.00 0.00 45 1004.3
20260505002521 23 184 8.0 27.4 0.00 0.00 0.00 44 1004.3
20260505001521 23 181 6.4 27.4 0.00 0.00 0.00 44 1004.2
20260505000541 24 182 6.4 29.0 0.00 0.00 0.00 44 1004.3
20260504235516 24 186 6.4 17.7 0.00 0.00 0.00 43 1004.3
20260504234516 25 167 6.4 20.9 0.00 0.00 0.00 43 1004.6
20260504233541 25 185 6.4 17.7 0.00 0.00 0.00 43 1004.7
20260504232522 24 178 4.8 17.7 0.00 0.00 0.00 44 1004.8
20260504231521 25 185 4.8 20.9 0.00 0.00 0.00 43 1005.0
20260504230522 25 180 6.4 20.9 0.00 0.00 0.00 41 1004.9
20260504225546 25 162 6.4 20.9 0.00 0.00 0.00 42 1004.8
20260504224516 26 174 6.4 17.7 0.00 0.00 0.00 41 1004.9
20260504223521 25 171 3.2 24.1 0.00 0.00 0.00 42 1005.1
20260504222522 25 185 4.8 24.1 0.00 0.00 0.00 40 1005.0
20260504221522 25 163 6.4 22.5 0.00 0.00 0.00 39 1005.0
20260504220522 25 157 4.8 27.4 0.00 0.00 0.00 40 1005.4
20260504215521 26 167 4.8 16.1 0.00 0.00 0.00 38 1005.5
20260504214521 26 172 4.8 19.3 0.00 0.00 0.00 39 1005.8
20260504213516 25 184 4.8 20.9 0.00 0.00 0.00 37 1005.8
20260504212542 25 188 8.0 24.1 0.00 0.00 0.00 37 1006.2
20260504211521 25 185 6.4 20.9 0.00 0.00 0.00 37 1006.5
20260504210521 26 217 9.7 17.7 0.00 0.00 0.00 36 1006.7
20260504205521 26 183 8.0 25.7 0.00 0.00 0.00 35 1006.8
20260504204521 27 185 9.7 24.1 0.00 0.00 0.00 34 1006.8
20260504203536 27 203 9.7 27.4 0.00 0.00 0.00 35 1006.6
20260504202517 27 192 12.9 32.2 0.00 0.00 0.00 35 1006.4
20260504201521 27 207 12.9 33.8 0.00 0.00 0.00 35 1006.4
20260504200522 26 183 12.9 35.4 0.00 0.00 0.00 35 1006.5
20260504195521 26 180 11.3 30.6 0.00 0.00 0.00 36 1006.4
20260504194520 26 172 8.0 30.6 0.00 0.00 0.00 37 1006.5
20260504193522 26 179 9.7 30.6 0.00 0.00 0.00 35 1006.6
20260504192516 27 214 11.3 27.4 0.00 0.00 0.00 36 1006.6
20260504191602 27 184 6.4 19.3 0.00 0.00 0.00 37 1006.6
20260504190521 27 223 14.5 30.6 0.00 0.00 0.00 35 1006.6
20260504184541 27 191 9.7 30.6 0.00 0.00 0.00 35 1006.7
20260504183521 27 205 12.9 30.6 0.00 0.00 0.00 35 1006.8
20260504182516 27 193 12.9 27.4 0.00 0.00 0.00 35 1007.0
20260504181516 26 194 11.3 32.2 0.00 0.00 0.00 36 1007.2
20260504180521 27 211 9.7 27.4 0.00 0.00 0.00 36 1007.1
20260504175521 26 188 11.3 27.4 0.00 0.00 0.00 36 1007.3
20260504174542 26 185 11.3 35.4 0.00 0.00 0.00 41 1007.4
20260504173602 26 174 9.7 22.5 0.00 0.00 0.00 40 1007.5
20260504172521 25 191 11.3 41.8 0.00 0.00 0.00 40 1007.8
20260504171516 25 194 11.3 25.7 0.00 0.00 0.00 41 1008.0
20260504170522 25 184 9.7 35.4 0.00 0.00 0.00 45 1008.2
20260504150516 21 197 6.4 19.3 0.00 0.00 0.00 57 1008.7
20260504140521 19 171 3.2 9.7 0.00 0.00 0.00 64 1009.9
20260504130521 16 170 0.0 4.8 0.00 0.00 0.00 72 1010.2
20260504110521 14 0.0 0.0 0.00 0.00 0.00 78 1009.7
20260504100521 14 0.0 0.0 0.00 0.00 0.00 76 1009.9
20260504081541 17 196 4.8 12.9 0.00 0.00 0.00 62 1009.4
20260504080521 17 187 6.4 17.7 0.00 0.00 0.00 62 1009.5